This is the latest recevied weather packets stored in our database for station/object AC1IX. If no packets are shown the sender has not sent any weather packets the latest 10 day(s).
| Time | Temp. | Humidity | Pressure | Rain* | Wind** | Luminosity | Snow |
|---|---|---|---|---|---|---|---|
| 1777876669 | 5.56° C | 79% | 1011.1 hPa | 0 mm | - | 0 W/m² | - |
| 1777876366 | 5.56° C | 79% | 1010.9 hPa | 0 mm | - | 0 W/m² | - |
| 1777876062 | 5.56° C | 79% | 1011 hPa | 0 mm | - | 0 W/m² | - |
| 1777875758 | 5.56° C | 77% | 1010.9 hPa | 0 mm | - | 0 W/m² | - |
| 1777875455 | 5.56° C | 76% | 1011.2 hPa | 0 mm | - | 0 W/m² | - |
| 1777875151 | 5.56° C | 73% | 1011 hPa | 0 mm | - | 0 W/m² | - |
| 1777874849 | 5.56° C | 75% | 1011.3 hPa | 0 mm | - | 0 W/m² | - |
| 1777874544 | 5.56° C | 75% | 1011.2 hPa | 0 mm | - | 0 W/m² | - |
| 1777874242 | 6.11° C | 77% | 1011.4 hPa | 0 mm | - | 0 W/m² | - |
| 1777873939 | 6.11° C | 75% | 1011.4 hPa | 0 mm | - | 0 W/m² | - |
| 1777873636 | 6.11° C | 73% | 1011.5 hPa | 0 mm | - | 0 W/m² | - |
| 1777873333 | 6.11° C | 74% | 1011.4 hPa | 0 mm | - | 0 W/m² | - |
| 1777873030 | 6.11° C | 75% | 1011.4 hPa | 0 mm | - | 0 W/m² | - |
| 1777872727 | 6.11° C | 75% | 1011.6 hPa | 0 mm | - | 0 W/m² | - |
| 1777872424 | 6.11° C | 78% | 1011.4 hPa | 0 mm | - | 0 W/m² | - |
| 1777872122 | 6.11° C | 78% | 1011.2 hPa | 0 mm | - | 0 W/m² | - |
| 1777871819 | 6.11° C | 76% | 1011.4 hPa | 0 mm | - | 0 W/m² | - |
| 1777871515 | 6.11° C | 76% | 1011.6 hPa | 0 mm | - | 0 W/m² | - |
| 1777871212 | 6.67° C | 74% | 1011.6 hPa | 0 mm | - | 0 W/m² | - |
| 1777870909 | 6.67° C | 73% | 1011.6 hPa | 0 mm | - | 0 W/m² | - |
| 1777870606 | 6.67° C | 71% | 1011.7 hPa | 0 mm | - | 0 W/m² | - |
| 1777870306 | 6.67° C | 71% | 1011.8 hPa | 0 mm | - | 0 W/m² | - |
| 1777870004 | 6.67° C | 69% | 1011.9 hPa | 0 mm | - | 0 W/m² | - |
| 1777869701 | 7.22° C | 68% | 1011.8 hPa | 0 mm | - | 0 W/m² | - |
| 1777869398 | 7.22° C | 68% | 1011.6 hPa | 0 mm | - | 0 W/m² | - |
* Rain latest hour (hover to see other rain measurements)
** Current wind speed in m/s (hover to see current wind gust speed)